Weather in Alkun

Russia / Republic of Ingushetia     42°58′48″N   45°00′47″E
temp.,
°C
wind,
m/s
gust,
m/s
humid.,
%
clouds,
%
prec.,
mm/h
press.,
hPa
HPBL,
m
9 may, sun
sun900:00+11s337199 0.0 101246
03:00+10s4368100 0.0 101056
06:00+12sse3467100 0.0 100876
09:00+19nnw22475 0.0 1007863
12:00+19nw335275 0.0 10071424
15:00+13nw2493100 1.2 1009574
18:00+6wnw5898100 8.9 1016737
21:00+3wsw3798100 12.8 1022531
10 may, mon
mon1000:00+2sw2598100 3.3 1023388
03:00+1ssw3596100 5.9 1024387
06:00+1s3594100 2.0 1024335
09:00+3w2487100 3.7 1023890
12:00+6nnw227299 0.8 10211309
15:00+4nne1287100 2.6 1020500
18:00+3se1196100 3.2 1022312
21:00+2ssw119786 5.1 102360
11 may, tue
tue1100:00−1s229213 0.0 102332
03:00−2sse229143 0.0 102230
06:00+1se23894 0.0 101978
09:00+7ne3275100 0.0 1016650
12:00+9ne337396 0.1 1015968
15:00+8nne2276100 0.1 1016752
18:00+7ne1487100 0.0 1017234
21:00+4sse2294100 0.0 101818
12 may, wed
wed1200:00+3sse22926 0.0 101818
03:00+3s22900 0.0 101818
06:00+6s11852 0.0 101739
09:00+11nne217229 0.0 1016610
12:00+14nne226762 0.0 1016968
15:00+14nne227167 0.0 1017856
18:00+13ne238110 0.0 1017312
21:00+8sse22920 0.0 101817
13 may, thu
thu1300:00+8sse228814 0.0 101720
03:00+8sse3281100 0.0 101623
06:00+11sse22760 0.0 101631
09:00+18nne21580 0.0 1015432
12:00+20nne32545 0.0 1015806
15:00+20nne335734 0.2 1014792
18:00+17ne127817 0.3 1016124
21:00+13s22845 0.3 101722